GFSNIL_925_spd_000.txt.gz
Wind_Speed
25 22 21 22 24 21 18 19 18 17 11 7 8 11 16 22 26 24 21 25 28 30
23 23 18 11 7 17 26 22 16 11 8 10 16 28 24 17 19 22 27 28 30 32
16 10 6 9 19 22 17 9 1 8 17 16 8 10 15 19 24 26 29 30 30 31
11 10 16 20 16 11 6 1 9 3 4 9 11 15 20 22 23 23 24 25 28 30
14 15 17 16 12 9 9 7 5 4 8 13 17 17 19 21 24 27 29 30 30 32
16 18 17 14 10 8 3 5 6 10 14 18 19 23 24 25 27 27 28 28 27 24
11 14 9 9 7 3 6 7 9 14 17 18 20 22 22 21 20 19 17 16 19 21
9 6 5 5 5 16 11 12 12 14 14 16 16 19 17 14 12 16 22 26 28 29
4 4 2 11 9 14 15 10 10 12 14 18 18 15 9 15 22 27 29 29 27 28
7 7 8 9 12 14 9 9 12 16 17 16 10 11 19 21 25 26 26 27 27 27
7 8 10 8 8 9 12 15 16 15 13 12 15 15 22 24 26 27 28 28 29 28
15 14 11 13 12 14 15 15 16 14 12 11 18 23 22 23 24 27 27 27 26 26
8 9 10 12 13 13 16 15 14 8 14 20 24 24 21 21 22 22 25 26 26 27
11 13 13 12 14 15 16 9 14 17 21 22 20 23 21 21 23 24 26 26 26 26

GFSNIL_925_spd_003.txt.gz
Wind_Speed
27 29 29 30 24 19 9 13 18 18 15 13 7 13 18 19 20 23 25 24 19 20
31 31 31 29 16 7 13 19 16 11 9 12 12 24 24 16 11 15 18 21 22 21
33 31 26 22 11 15 17 10 3 3 11 17 17 9 10 12 14 19 20 18 19 20
35 28 16 15 14 17 8 3 5 7 6 2 8 11 14 15 15 17 19 21 23 25
36 23 14 15 12 9 6 5 2 3 3 5 10 12 13 16 18 19 21 22 22 24
30 14 14 10 9 5 1 3 3 7 10 12 11 13 14 16 17 18 18 19 19 19
15 7 7 5 5 7 9 10 11 12 13 12 12 13 13 15 16 13 12 15 18 21
5 4 6 8 8 13 15 10 15 18 15 13 14 17 15 11 9 15 21 26 29 30
4 6 9 10 14 11 14 19 17 14 15 16 15 11 5 12 17 22 26 28 27 28
12 10 13 15 17 17 15 12 13 14 13 12 7 9 14 18 23 26 28 26 25 25
11 11 14 14 13 12 11 12 12 12 12 11 11 15 20 23 25 25 25 26 25 26
16 14 13 13 15 13 14 13 13 9 9 13 19 22 22 21 23 25 26 27 25 24
13 13 14 14 13 14 14 11 7 13 17 20 22 22 21 20 22 20 20 21 23 25
14 14 12 13 15 14 10 11 17 19 20 20 21 22 23 20 20 22 23 23 25 24

GFSNIL_925_spd_006.txt.gz
Wind_Speed
25 29 34 37 38 36 24 11 2 11 15 13 10 8 9 9 11 13 12 10 8 11
32 36 38 39 35 29 14 10 11 8 5 4 3 5 13 17 14 11 8 7 10 12
34 36 37 38 28 16 11 10 4 2 4 8 10 7 9 8 9 12 13 13 11 11
35 34 35 23 14 12 7 0 3 6 11 14 11 10 8 10 11 11 12 12 16 17
30 30 22 7 4 3 3 5 8 11 9 13 14 12 12 12 12 13 15 16 17 19
26 21 11 7 7 7 8 6 9 9 15 15 14 13 13 14 13 13 15 16 15 15
17 10 9 10 10 14 13 12 13 13 20 17 14 12 13 14 13 12 13 15 18 22
10 11 11 15 17 20 23 22 20 19 21 18 16 18 17 14 12 15 20 25 28 29
14 13 12 15 15 16 19 21 24 21 18 16 16 13 8 11 16 20 25 26 26 28
18 17 17 16 15 15 15 14 14 16 16 14 11 10 13 17 22 26 26 25 25 24
15 16 14 14 15 15 13 15 16 15 13 13 16 19 22 23 24 25 25 25 25 24
12 13 15 16 14 13 14 15 13 11 15 19 22 23 22 21 24 25 25 23 21 22
13 14 14 13 14 15 13 9 14 19 20 20 22 24 21 21 24 22 21 24 22 23
14 13 12 14 13 13 11 15 19 20 20 21 23 23 23 23 22 21 22 21 23 24

GFSNIL_925_spd_009.txt.gz
Wind_Speed
23 27 28 27 30 31 27 19 9 2 5 6 7 6 6 7 9 13 10 10 9 8
23 27 26 29 29 25 19 6 4 2 2 2 3 6 9 12 10 9 9 8 3 3
23 24 26 28 25 18 7 3 2 5 4 6 7 8 10 8 5 3 4 5 8 10
23 23 23 18 15 7 2 4 3 5 7 10 8 9 11 7 5 5 5 6 7 10
17 19 15 11 8 7 7 6 6 7 11 13 14 14 10 9 8 9 9 11 11 13
16 14 9 9 10 11 11 9 11 12 12 14 15 16 14 13 12 12 11 10 9 10
10 9 10 11 12 12 14 13 15 15 15 15 15 14 16 13 11 10 10 11 12 14
9 8 12 11 13 13 13 14 14 14 13 12 12 10 11 9 9 12 15 18 19 19
7 10 13 14 15 14 14 14 14 15 15 15 11 12 10 13 15 18 20 22 23 23
11 12 11 12 14 15 14 13 14 13 12 11 11 15 17 18 19 21 21 21 22 22
11 11 12 14 14 13 13 14 13 11 11 14 16 19 19 19 19 19 20 21 21 21
10 12 12 12 13 13 13 12 11 13 15 16 17 18 19 18 19 20 21 20 18 18
11 11 11 12 12 11 11 11 13 15 15 16 17 19 18 18 19 20 19 19 19 19
10 11 10 11 10 11 13 11 15 16 16 15 16 17 19 19 18 18 20 20 21 19

GFSNIL_925_spd_012.txt.gz
Wind_Speed
15 18 22 24 28 28 27 24 18 10 7 5 4 4 4 6 4 8 9 8 8 5
16 19 22 24 24 23 21 18 10 7 8 6 5 6 8 7 7 6 7 5 4 5
16 17 18 20 20 18 14 9 7 7 5 6 8 10 9 9 9 8 7 8 10 10
15 14 15 15 14 13 11 9 7 6 7 8 11 11 9 12 11 9 9 10 12 13
13 14 15 14 13 12 11 9 8 9 10 14 13 13 11 11 12 12 13 14 15 16
14 15 14 14 14 14 13 13 13 12 13 12 14 16 14 14 16 16 17 16 16 15
15 12 13 13 13 14 14 15 15 16 17 16 15 15 14 15 17 17 17 16 16 16
9 10 12 15 16 16 16 16 16 15 14 14 14 11 12 15 17 18 19 19 20 20
10 12 14 14 16 17 17 16 15 15 15 15 14 12 14 16 19 22 23 23 22 22
12 13 14 16 17 16 16 15 16 16 14 14 15 16 20 18 20 21 22 22 22 22
12 12 15 16 15 16 16 16 16 15 16 17 17 16 17 20 20 20 21 21 22 23
11 12 14 14 15 16 16 16 16 16 18 19 19 17 18 19 21 21 22 22 21 19
11 11 13 14 15 15 16 17 16 17 18 19 19 17 18 19 21 20 20 20 20 19
11 11 12 14 15 16 17 17 13 15 17 16 15 20 17 19 19 19 21 21 21 19

GFSNIL_925_spd_018.txt.gz
Wind_Speed
12 12 13 15 17 17 18 19 21 24 19 11 9 10 11 12 15 16 18 14 14 12
12 13 12 15 16 17 15 18 22 22 12 10 9 11 15 20 21 23 20 18 15 14
16 15 14 16 15 13 19 20 22 22 17 14 13 15 19 17 19 17 18 15 13 14
18 16 16 10 15 15 19 19 22 22 20 16 18 19 16 16 14 12 14 15 15 17
19 17 13 14 14 17 17 17 20 24 22 22 20 18 19 19 18 16 16 19 20 20
18 15 13 13 13 17 19 20 20 22 23 23 22 21 20 21 12 17 21 25 26 24
16 14 8 9 12 16 18 20 20 21 20 21 21 22 15 13 16 18 19 23 28 29
19 11 7 9 13 16 19 17 17 19 20 22 21 11 17 16 15 18 21 24 26 26
12 11 10 9 13 15 16 16 18 18 19 20 17 16 16 19 21 19 22 25 27 27
17 15 13 10 10 14 13 17 16 18 17 14 15 15 19 21 22 19 23 25 26 26
15 16 14 9 9 11 12 16 18 16 11 13 15 21 24 23 21 20 21 23 26 26
19 12 13 9 11 10 14 17 13 14 14 16 19 23 22 20 18 18 20 23 23 25
23 16 9 7 13 13 16 13 12 13 14 16 21 21 20 16 14 18 21 22 23 24
20 12 7 6 12 13 13 13 11 14 18 20 20 19 16 15 15 18 22 23 24 24

GFSNIL_925_spd_024.txt.gz
Wind_Speed
4 4 5 4 5 5 4 4 7 8 8 10 13 15 14 14 16 16 17 17 17 17
4 6 5 8 10 10 8 8 7 5 9 11 12 14 12 13 14 14 17 17 16 16
11 11 13 13 14 13 12 9 7 7 8 9 9 9 11 13 15 14 13 10 8 12
14 12 14 17 19 18 15 11 8 8 6 7 7 8 9 10 9 5 6 10 15 19
10 12 15 17 22 19 14 13 12 8 8 8 7 9 10 9 4 7 10 13 17 21
18 21 23 24 22 17 15 10 10 14 9 8 8 9 9 7 8 9 11 16 18 20
21 22 22 19 13 18 18 19 20 11 7 9 10 12 6 8 10 15 19 20 17 18
18 19 18 18 21 20 18 13 14 10 11 10 10 8 7 11 17 20 20 18 17 17
15 17 18 19 22 17 13 6 9 11 10 6 5 8 14 19 20 18 18 19 20 20
21 24 23 21 18 12 5 2 9 9 1 5 8 13 16 16 15 16 17 19 20 21
19 21 19 19 13 5 2 4 4 2 5 9 12 13 14 14 15 15 15 17 20 23
15 17 18 14 9 4 8 1 1 4 8 11 12 11 15 15 15 18 22 22 21 21
13 14 13 12 11 11 4 3 3 7 9 11 11 15 13 16 20 21 20 19 21 20
12 14 14 9 8 6 4 4 5 8 10 10 14 17 15 17 18 18 19 20 20 22

GFSNIL_925_spd_027.txt.gz
Wind_Speed
2 6 9 12 14 15 16 17 14 13 9 7 8 9 11 12 14 13 13 13 13 14
9 11 14 14 15 17 18 17 17 13 11 10 10 9 12 13 15 14 13 14 11 9
12 14 16 17 19 20 20 21 18 14 12 13 12 10 10 10 11 13 13 9 6 10
16 18 16 18 21 22 23 17 13 10 11 18 15 11 9 9 13 11 9 10 11 14
11 14 18 21 22 24 20 16 16 16 16 15 16 11 11 13 11 9 11 13 15 19
14 15 17 19 21 21 21 20 23 20 19 20 13 13 12 10 9 10 13 17 19 18
13 14 16 17 17 20 24 24 22 15 11 7 13 13 9 8 10 15 19 20 18 18
11 14 18 22 22 23 21 14 10 9 9 7 13 7 8 12 17 20 21 20 20 20
13 17 21 20 18 16 10 10 8 3 8 5 3 7 12 15 17 19 19 22 22 20
13 17 18 17 15 10 7 3 5 7 2 4 7 9 13 14 16 17 18 18 21 22
14 17 17 15 9 6 5 6 6 2 2 6 9 9 11 13 15 17 20 22 20 21
16 16 16 12 11 7 9 7 4 0 5 9 8 11 10 13 17 20 21 19 21 19
14 15 16 13 9 8 5 5 2 3 5 6 9 11 12 14 17 19 18 22 21 18
14 14 12 10 7 7 5 5 1 4 4 5 9 12 12 15 16 18 19 19 19 21

GFSNIL_925_spd_030.txt.gz
Wind_Speed
5 8 10 14 14 16 19 21 21 22 18 15 12 12 13 15 14 14 14 15 16 17
9 13 15 16 18 20 22 25 24 21 17 13 13 14 16 20 18 16 16 15 16 14
11 14 15 16 18 20 24 25 24 20 16 17 18 15 13 16 18 15 14 13 11 12
12 11 14 15 15 16 17 19 21 22 19 19 16 15 16 18 16 15 12 11 12 15
9 10 10 12 13 16 20 22 23 20 17 13 17 14 14 15 18 12 11 12 15 20
7 8 10 14 18 23 24 24 20 14 12 13 7 5 9 16 12 11 13 17 21 23
6 9 14 19 23 24 23 19 13 12 13 9 7 7 12 8 10 15 19 22 21 21
8 13 19 23 22 22 18 12 12 11 7 5 7 3 4 10 16 19 21 22 22 23
11 17 20 20 20 18 13 11 7 5 6 3 3 3 9 14 16 19 21 23 22 24
15 18 17 17 16 11 7 6 8 8 1 2 6 9 12 14 17 18 21 22 21 18
15 16 16 16 13 12 8 8 9 2 1 4 7 10 11 12 16 20 20 19 17 19
13 16 18 20 17 14 12 10 6 4 4 6 8 10 11 12 15 17 19 18 19 16
13 16 19 19 17 13 9 8 7 4 5 7 8 10 10 11 15 18 19 21 19 17
13 15 13 15 12 11 8 6 5 5 6 7 7 9 10 11 14 17 19 18 19 19

GFSNIL_925_spd_033.txt.gz
Wind_Speed
3 5 8 12 15 16 17 19 22 22 21 18 16 14 11 12 13 14 13 12 12 11
5 8 11 11 11 12 15 17 19 22 23 22 19 13 12 12 14 14 16 13 14 12
6 5 5 9 10 12 16 19 21 24 24 20 16 13 13 14 12 13 14 11 12 11
3 5 8 8 11 14 18 22 24 22 20 14 11 10 12 11 10 9 12 11 11 13
5 6 8 10 13 18 21 21 19 17 13 8 10 13 11 4 5 11 11 10 12 17
6 6 7 11 17 20 19 19 16 11 7 7 8 5 5 8 10 7 8 13 17 19
5 6 9 14 18 20 20 14 12 9 9 7 5 5 6 5 5 9 12 15 16 18
5 8 12 17 19 19 15 10 8 6 5 5 3 3 4 6 9 12 15 15 16 17
7 10 16 17 16 14 9 7 4 6 6 1 2 4 8 11 11 13 14 17 18 17
8 14 15 14 13 12 9 8 6 8 3 1 2 8 11 14 11 13 15 16 17 16
13 13 12 13 15 13 11 10 8 5 4 2 5 9 11 13 11 13 14 15 15 16
12 10 11 14 15 13 10 8 9 6 5 5 6 9 10 11 12 14 16 15 16 15
12 10 10 12 14 13 9 8 6 6 6 7 8 9 10 10 12 15 16 16 15 14
12 10 11 13 11 12 9 6 6 7 7 9 9 8 10 10 11 13 16 16 17 15

GFSNIL_925_spd_036.txt.gz
Wind_Speed
3 0 3 5 8 11 12 13 14 15 18 20 20 19 19 17 17 16 17 17 15 15
1 2 4 5 5 7 9 13 16 19 22 23 21 19 19 19 18 17 17 18 14 13
1 1 2 4 5 8 12 16 20 23 24 23 20 18 17 17 16 16 14 14 14 15
2 1 2 4 6 10 15 19 21 21 21 19 17 13 11 14 15 13 12 14 15 16
1 3 3 5 8 13 17 18 18 17 16 14 12 12 12 12 9 10 13 13 14 18
4 4 5 7 10 14 16 16 14 13 12 11 11 10 7 8 8 9 10 14 18 20
5 5 5 8 12 14 14 13 12 11 9 8 7 5 5 5 8 12 14 16 17 18
6 6 6 10 13 13 12 11 10 8 7 7 4 2 4 8 12 15 15 15 16 17
6 6 8 12 13 13 12 12 11 10 9 7 4 5 7 10 14 14 14 15 17 16
6 8 11 12 13 14 14 13 11 11 10 9 6 8 9 13 13 13 13 15 16 16
8 11 12 12 13 13 13 12 11 10 10 9 8 9 10 13 11 12 13 14 15 16
11 12 12 12 12 13 13 13 11 11 10 10 9 11 10 10 11 12 14 14 15 15
11 13 13 12 13 14 13 13 11 11 10 9 9 11 9 9 10 12 14 14 14 13
12 12 12 13 13 14 13 12 10 9 9 10 11 10 11 9 8 11 14 15 15 14

GFSNIL_925_spd_039.txt.gz
Wind_Speed
7 3 6 4 6 8 9 10 11 15 17 20 22 23 23 23 22 18 18 17 18 16
7 6 4 4 4 6 7 10 13 15 19 21 21 21 21 22 22 17 17 16 15 13
6 6 4 4 4 5 8 11 14 17 18 19 19 19 19 17 16 18 18 12 13 13
7 6 5 4 4 7 9 13 15 16 17 17 17 14 14 16 17 15 12 12 13 13
9 6 5 5 6 8 12 14 15 15 15 15 15 14 12 11 10 11 11 12 13 17
9 7 7 8 8 10 13 14 15 14 14 14 13 11 10 9 8 10 12 15 16 19
7 8 8 8 9 12 14 14 14 13 12 12 13 11 9 8 9 13 15 16 16 16
7 7 8 8 11 13 14 14 14 13 12 12 12 8 5 8 12 15 17 15 15 15
6 8 9 10 12 13 14 15 16 13 13 12 13 9 9 9 11 16 16 14 15 15
7 9 10 12 13 13 14 15 16 11 12 14 10 11 10 10 12 15 13 13 15 16
8 11 12 13 13 14 14 15 16 10 9 13 12 12 12 12 13 13 13 13 14 15
10 12 13 14 15 14 15 15 14 11 11 13 11 11 12 12 12 12 13 13 14 13
11 13 14 15 15 15 15 16 13 11 11 12 9 10 12 12 10 11 12 13 13 12
12 13 13 14 14 15 17 15 12 10 10 11 10 12 12 11 9 10 12 13 13 12

GFSNIL_925_spd_042.txt.gz
Wind_Speed
11 9 6 7 4 1 4 4 7 8 9 14 17 19 20 21 21 23 16 14 13 13
11 7 6 5 4 5 2 3 6 9 12 15 16 17 19 19 17 15 15 14 14 11
11 9 6 4 7 4 3 4 8 10 12 13 15 15 13 16 17 17 17 11 11 13
14 9 9 9 5 5 4 5 8 10 12 12 12 14 15 14 14 11 12 11 12 13
11 13 12 8 7 5 5 7 9 11 13 12 11 10 13 14 11 12 10 12 13 15
16 13 8 7 5 5 6 8 10 12 12 11 8 12 12 13 10 9 10 13 13 14
13 10 5 5 5 6 8 10 12 12 12 10 9 12 15 8 4 11 14 15 16 15
5 2 4 5 6 8 9 11 13 15 14 10 8 13 7 6 6 9 14 16 14 13
0 3 4 5 7 10 11 12 12 13 13 8 10 13 11 10 8 10 13 16 12 13
4 5 5 8 9 10 10 12 12 16 16 11 11 14 14 13 8 11 11 14 12 13
4 5 6 8 12 12 12 10 14 15 10 9 13 17 14 12 10 9 12 13 11 13
4 6 7 10 13 13 13 12 14 15 11 9 14 12 12 11 10 10 11 12 12 14
8 9 11 14 13 12 13 14 15 10 8 9 10 11 11 11 8 10 11 12 11 15
10 12 12 12 14 14 15 18 17 13 11 11 11 10 14 14 13 12 10 11 11 11

GFSNIL_925_spd_045.txt.gz
Wind_Speed
19 19 17 13 14 12 6 2 2 4 8 11 14 14 16 16 14 10 12 11 11 12
19 16 13 13 12 10 5 5 4 5 8 11 11 12 10 8 10 14 12 10 7 6
20 14 14 11 4 4 9 9 6 7 8 8 9 7 8 11 11 9 7 8 9 9
15 15 12 5 5 11 7 6 5 6 8 9 9 11 13 15 11 11 13 9 8 10
16 11 7 8 10 10 13 8 5 6 8 9 9 8 10 12 11 9 7 8 10 7
12 8 10 10 11 14 9 6 5 8 10 12 11 8 13 11 11 6 4 6 10 13
12 13 5 10 11 8 5 5 8 10 12 15 14 10 11 10 10 8 8 10 13 13
14 8 10 1 9 6 7 9 13 13 13 12 9 8 11 12 10 10 9 10 10 9
16 6 9 12 5 6 12 12 10 9 12 14 12 11 13 12 12 10 9 11 9 12
5 5 2 2 6 10 14 14 14 12 15 18 16 14 14 14 13 11 9 9 10 9
9 2 2 3 11 12 12 13 14 14 15 15 14 13 15 15 12 11 10 11 9 10
11 10 8 9 9 13 16 14 14 15 16 12 12 13 13 15 14 11 11 12 12 11
10 7 11 16 15 15 16 21 19 16 13 14 15 14 13 14 13 14 14 12 10 11
8 15 16 14 15 19 18 17 19 20 15 14 15 14 15 16 17 19 15 13 14 14

GFSNIL_925_spd_051.txt.gz
Wind_Speed
28 26 28 26 29 28 27 24 20 10 7 7 3 17 15 11 5 6 10 10 6 5
30 27 27 25 28 28 27 22 15 10 4 8 12 8 8 3 4 6 5 0 3 6
30 27 25 25 24 28 23 19 10 4 5 7 7 8 5 5 4 6 7 7 7 6
28 28 25 28 29 27 20 6 7 7 10 12 7 6 7 8 8 9 9 8 8 9
34 33 31 28 26 21 13 11 9 11 13 6 6 7 9 11 12 11 9 11 12 11
31 31 29 29 25 14 15 13 13 16 7 6 6 7 10 13 13 13 13 15 15 14
32 29 26 19 18 15 10 13 10 7 6 6 8 10 11 14 15 15 15 15 16 14
25 22 18 25 17 15 8 6 7 6 10 11 13 11 13 14 16 17 15 15 17 17
18 19 19 20 14 8 9 1 7 15 17 15 13 15 14 14 18 17 17 18 19 16
21 21 16 17 14 7 4 15 17 16 15 13 16 16 15 16 18 18 18 20 18 16
25 22 14 8 6 14 15 14 12 12 14 14 15 16 17 17 18 19 20 21 18 19
18 9 4 8 12 10 10 11 13 12 16 17 17 16 15 17 19 21 22 22 21 20
5 9 10 7 7 9 10 14 16 19 18 18 19 17 18 20 21 22 23 23 23 20
12 5 4 6 9 14 17 16 18 21 21 21 21 23 22 22 23 23 26 25 25 22

GFSNIL_925_spd_054.txt.gz
Wind_Speed
33 27 26 23 25 30 29 27 22 22 18 13 6 3 4 6 6 4 5 6 7 7
31 30 27 24 25 30 29 26 26 23 18 8 3 3 6 8 6 6 6 5 6 9
34 31 27 25 28 29 29 32 27 19 9 9 7 6 8 9 9 9 9 8 8 11
33 29 27 27 26 28 32 29 20 13 11 7 8 6 11 11 13 14 12 11 11 12
29 29 29 29 28 31 30 23 19 14 13 10 9 9 13 16 17 17 15 13 14 14
25 24 24 26 27 28 25 16 11 11 10 7 9 12 16 17 18 17 16 15 15 16
22 24 26 26 26 23 16 13 13 11 6 11 12 19 15 14 16 17 17 16 15 16
22 23 26 25 19 16 12 11 9 10 12 14 18 17 14 15 16 17 19 17 17 17
22 21 19 16 16 15 12 11 9 12 13 15 19 17 17 16 17 19 20 19 19 19
18 18 20 18 15 15 10 7 14 15 16 15 14 15 17 18 20 21 21 20 21 21
25 26 20 10 4 8 11 12 14 12 12 14 16 17 18 19 21 21 22 22 22 23
18 10 6 5 9 16 13 11 11 13 15 17 20 16 17 19 20 22 24 23 22 23
10 10 12 14 9 9 10 12 15 18 20 22 24 22 21 20 23 25 27 26 24 24
7 4 4 6 8 12 16 17 18 20 22 23 23 24 25 25 26 27 29 28 26 25

GFSNIL_925_spd_060.txt.gz
Wind_Speed
25 25 26 27 23 23 25 28 25 28 22 21 20 21 20 18 12 10 10 12 13 11
24 25 27 20 20 18 24 26 23 21 21 23 21 16 19 13 10 11 12 14 11 12
22 21 18 17 19 20 24 18 20 21 26 22 22 24 18 14 12 11 12 13 12 13
20 19 19 20 20 24 24 24 22 27 25 26 24 18 14 10 9 13 14 15 15 15
18 17 16 19 21 21 21 23 21 23 25 26 25 20 15 13 13 14 16 17 16 17
13 14 13 13 14 15 17 19 21 21 22 21 14 13 13 13 14 15 17 17 17 18
8 9 9 9 10 13 14 17 19 19 18 13 11 12 13 13 16 17 17 18 19 20
10 9 10 11 13 15 16 17 19 17 14 8 8 13 13 14 17 18 19 20 21 23
14 14 15 16 16 15 16 15 16 13 8 9 11 17 18 18 19 21 21 23 24 25
16 17 17 17 17 17 15 12 8 7 6 14 19 19 17 18 19 20 22 25 27 27
20 20 18 16 15 12 10 9 5 8 13 11 10 13 15 16 18 22 24 26 27 29
18 17 14 11 9 6 6 7 7 5 7 9 11 14 18 18 19 22 26 27 28 29
12 10 7 5 5 2 1 1 4 7 8 10 13 14 18 17 18 22 25 27 29 31
10 9 7 5 3 1 2 4 5 8 10 12 13 14 16 19 18 21 25 27 29 29

GFSNIL_925_spd_063.txt.gz
Wind_Speed
27 27 25 23 28 28 27 23 20 22 24 25 24 19 20 19 20 16 13 10 9 12
26 27 23 22 23 26 20 22 24 27 28 24 19 23 23 21 17 17 12 11 14 14
23 24 22 18 21 20 16 21 23 25 22 24 27 24 21 20 17 12 9 11 14 15
20 21 24 19 19 16 15 16 19 20 24 22 23 21 15 17 14 11 12 16 14 18
15 16 17 18 17 15 15 15 20 24 21 24 24 22 20 13 9 11 13 14 17 21
13 14 14 14 14 13 15 18 18 16 20 21 19 20 16 11 9 13 15 19 20 20
12 11 10 8 8 9 11 13 14 19 19 14 16 14 10 9 13 15 18 19 21 22
12 11 11 12 12 13 14 17 16 17 16 16 12 10 10 12 14 16 16 20 22 23
16 16 16 17 18 15 16 15 17 18 15 11 7 8 11 15 15 16 18 21 22 24
18 18 18 18 16 15 15 18 17 14 8 5 8 13 13 11 13 16 18 21 24 26
18 18 17 16 15 14 14 12 9 4 5 8 9 5 7 11 13 17 21 24 26 28
17 16 15 14 12 10 8 5 5 5 4 3 5 3 9 12 14 17 21 23 25 27
14 13 11 8 7 7 6 4 2 1 3 4 6 5 8 12 13 17 20 23 25 28
11 10 9 8 7 5 4 1 0 2 3 6 5 7 13 14 13 16 20 23 26 26

GFSNIL_925_spd_066.txt.gz
Wind_Speed
29 23 24 25 21 31 28 29 25 32 30 30 27 27 25 22 22 20 15 15 14 10
34 33 29 30 27 31 31 21 25 25 28 29 27 23 24 24 21 19 19 14 11 10
33 32 29 27 28 19 19 20 20 25 27 25 21 23 24 20 19 18 15 12 10 10
29 30 26 22 18 17 17 18 19 19 20 21 24 24 23 23 20 17 15 13 13 14
28 19 17 13 11 14 17 15 18 17 20 23 21 22 25 21 16 16 14 13 16 19
15 15 12 12 14 15 18 16 17 21 21 21 23 22 15 12 15 12 12 14 15 17
21 17 15 15 14 12 12 15 18 19 18 18 16 13 15 16 13 10 11 13 16 20
18 16 14 13 13 13 14 16 16 16 16 15 13 16 15 12 9 10 13 15 18 21
17 17 17 17 18 17 17 17 17 18 17 18 17 12 9 8 10 12 14 15 18 20
21 22 21 20 19 18 18 19 20 20 18 12 8 6 6 7 8 9 14 16 18 21
22 23 21 19 18 19 19 19 18 13 7 4 4 6 5 6 6 9 13 16 18 20
21 21 19 19 18 17 17 13 9 6 6 5 10 7 4 2 4 8 11 14 16 19
18 18 18 16 14 11 12 11 9 9 6 3 4 3 3 6 8 9 12 17 22 23
17 15 14 14 13 13 10 11 7 5 4 3 4 3 8 11 10 12 18 19 21 22

GFSNIL_925_spd_069.txt.gz
Wind_Speed
46 40 40 39 40 44 42 41 39 35 31 29 29 27 21 23 21 20 21 19 19 19
48 41 41 44 36 43 40 40 37 31 31 28 24 21 21 23 22 21 17 17 15 14
42 40 35 37 36 28 32 30 30 25 23 24 24 23 21 20 20 19 18 18 16 16
35 36 34 26 19 17 28 34 26 23 24 25 24 22 21 21 21 21 20 17 15 16
35 28 21 20 23 31 28 27 25 22 21 21 21 20 20 21 22 20 16 13 13 14
21 20 26 23 20 24 24 23 20 19 17 18 20 21 21 21 17 14 13 12 12 13
26 25 26 25 21 21 20 20 19 17 17 18 19 19 18 14 14 14 10 8 10 12
26 25 25 23 21 20 18 16 17 18 18 17 16 16 16 16 16 10 6 8 12 15
22 23 23 21 19 18 18 18 18 18 18 19 17 16 16 13 10 7 7 10 11 12
20 20 20 20 19 20 20 20 20 20 19 18 17 13 10 8 7 6 5 7 11 12
23 23 21 21 21 21 22 21 21 20 18 14 9 9 8 7 5 3 3 3 7 11
25 24 22 23 23 23 24 22 20 16 13 11 8 14 11 9 7 6 7 9 12 14
24 24 26 24 25 25 22 17 15 11 12 17 15 10 8 5 3 4 7 9 12 13
23 23 23 23 21 19 18 17 21 21 18 15 12 9 3 1 4 6 10 12 15 17

GFSNIL_925_spd_072.txt.gz
Wind_Speed
41 39 43 41 41 41 40 41 42 43 43 39 34 28 28 27 29 28 25 23 25 23
41 41 38 44 43 46 42 41 37 39 40 41 32 29 27 27 27 24 22 22 23 21
40 44 45 35 42 41 39 35 36 34 34 33 31 28 26 26 25 23 23 24 23 22
39 42 43 39 31 30 21 23 20 33 38 34 30 28 28 27 25 24 24 23 22 19
21 29 30 30 27 24 22 15 34 38 37 32 29 30 29 28 25 25 24 22 18 15
31 28 24 31 31 32 30 31 30 34 33 30 28 28 27 25 24 23 20 17 15 12
26 32 33 39 35 31 29 31 33 30 25 23 25 25 24 22 20 20 16 14 11 8
19 17 20 22 25 26 27 28 26 24 24 22 21 22 21 21 20 18 15 10 7 6
22 24 24 26 26 25 24 23 23 22 22 22 22 21 20 19 19 16 11 7 5 4
25 24 24 25 25 23 23 22 22 22 22 21 19 18 18 17 14 11 7 6 5 4
27 27 26 25 24 24 25 25 25 23 20 20 20 18 16 14 12 10 8 6 3 4
26 26 25 26 27 28 27 25 24 24 23 21 17 17 15 14 13 11 7 3 3 6
25 24 25 27 25 25 26 27 26 23 18 17 16 19 16 14 12 8 3 2 4 6
23 23 22 24 27 27 25 23 20 20 20 20 19 17 13 9 6 3 1 3 5 7

GFSNIL_925_spd_075.txt.gz
Wind_Speed
41 41 41 41 38 39 41 41 40 40 38 40 40 40 39 37 30 27 30 29 28 26
42 41 37 39 41 41 40 39 36 35 36 38 39 39 35 25 29 30 29 29 25 24
34 38 36 31 33 38 35 32 30 32 34 34 33 35 31 33 33 30 29 26 22 22
26 29 30 35 35 33 30 25 26 27 27 25 32 34 30 32 30 30 27 22 21 22
40 46 40 42 37 34 34 23 21 28 34 38 39 36 32 35 32 29 26 23 20 21
38 39 40 37 37 36 31 33 39 37 35 37 33 38 34 37 30 26 23 21 21 19
35 38 39 40 40 39 36 38 37 38 36 33 30 34 33 28 24 21 20 18 17 14
33 29 33 34 34 35 34 36 37 33 29 28 29 27 24 22 20 20 18 17 13 10
25 22 23 25 27 27 30 31 28 26 23 22 21 21 19 20 20 20 18 16 13 10
18 19 22 24 23 23 22 22 21 20 20 20 16 16 16 18 19 19 17 13 11 11
23 24 24 23 23 21 20 21 21 19 17 17 17 16 16 17 17 14 11 10 9 6
25 24 23 22 21 19 18 17 17 18 18 19 20 18 18 17 15 14 10 6 3 1
21 21 20 20 19 20 21 22 23 21 19 21 20 16 14 13 14 13 9 4 1 3
16 18 18 19 19 21 22 24 25 23 18 18 18 16 14 11 9 6 4 2 2 4

GFSNIL_925_spd_078.txt.gz
Wind_Speed
35 36 34 32 32 33 34 34 32 32 30 32 33 35 34 35 36 37 34 34 36 37
33 33 31 34 32 33 34 32 29 29 30 30 30 33 33 34 36 35 28 27 31 35
30 31 32 31 34 36 36 36 36 35 33 30 28 29 29 32 32 31 32 30 34 34
28 30 35 41 44 46 45 43 41 42 38 33 32 33 30 32 27 27 30 30 33 32
41 42 49 52 49 40 40 47 43 37 32 36 35 34 32 33 35 29 31 31 31 27
38 41 41 39 41 37 39 41 42 38 37 31 29 31 31 31 31 30 31 32 27 24
39 46 33 29 34 37 38 40 38 37 34 31 28 27 26 27 26 27 26 23 20 21
44 41 37 37 35 34 34 35 33 32 30 29 27 27 26 24 25 22 17 14 14 13
33 33 35 31 28 28 29 29 30 29 28 29 23 20 20 20 20 17 18 20 18 15
28 26 24 20 20 21 22 23 23 22 21 19 16 16 15 15 17 20 21 21 17 15
23 20 17 16 17 17 18 17 17 17 17 15 14 15 18 19 21 21 19 16 14 11
17 16 16 17 17 16 16 15 14 14 15 18 21 18 18 22 22 21 17 13 10 8
16 17 18 17 15 15 16 18 18 18 18 21 21 16 17 17 19 18 16 12 8 4
14 15 15 16 16 19 20 21 22 23 22 21 18 16 13 11 12 13 12 9 6 3

GFSNIL_925_spd_081.txt.gz
Wind_Speed
30 27 23 24 24 29 30 31 30 30 31 32 33 33 34 34 32 29 31 28 25 26
31 33 30 31 32 35 35 33 32 32 33 33 31 31 30 31 31 31 31 30 30 31
32 33 31 33 35 34 34 34 35 34 32 31 31 30 28 28 28 26 28 28 25 30
29 30 32 34 38 41 39 38 38 37 35 34 34 32 31 29 30 29 33 29 24 23
34 37 40 44 49 41 34 33 37 34 36 34 36 34 31 32 31 33 32 32 28 28
37 35 38 48 37 31 31 31 32 35 34 35 32 35 37 36 35 31 32 30 31 31
35 38 43 38 23 25 25 27 29 36 38 36 32 35 35 31 30 29 30 27 27 27
36 37 38 29 27 26 28 29 30 31 32 32 33 35 33 32 30 28 23 20 19 18
33 32 32 27 23 24 27 27 27 29 31 33 34 33 32 29 25 21 19 19 17 16
28 28 27 23 22 23 25 26 28 29 31 30 30 25 22 20 18 19 20 21 22 19
23 23 25 24 23 24 22 20 19 17 15 14 10 11 15 18 20 20 21 21 18 17
24 23 21 22 20 17 15 13 11 10 11 13 16 18 18 18 22 24 21 17 15 13
22 23 21 17 15 13 14 16 17 17 16 20 21 14 16 19 23 23 21 16 13 9
19 18 17 17 17 19 20 23 24 25 24 23 20 18 15 15 18 19 18 14 11 8

GFSNIL_925_spd_084.txt.gz
Wind_Speed
31 29 29 31 32 32 33 32 24 21 23 21 21 22 20 20 22 21 23 25 26 26
33 34 31 34 37 35 32 32 29 28 26 26 25 24 22 22 23 24 25 26 26 27
33 34 33 32 33 35 33 32 30 30 29 27 25 24 23 24 25 25 25 25 24 22
32 34 35 34 34 35 33 32 32 29 28 27 26 25 25 27 26 24 25 22 22 26
32 33 35 38 38 37 36 34 31 29 29 29 29 28 28 28 26 25 23 29 30 31
33 35 39 39 38 36 36 35 32 32 32 32 31 29 29 29 28 28 33 25 29 31
34 34 33 31 29 30 30 30 30 30 30 30 30 30 28 27 26 26 27 29 29 30
31 30 30 29 27 26 25 27 26 26 26 25 25 26 26 26 26 25 25 26 26 26
29 29 28 26 24 25 25 25 24 22 22 22 23 25 29 30 29 30 28 21 18 15
27 27 27 24 23 23 21 20 20 20 20 20 22 26 26 26 26 21 18 17 15 14
25 24 23 23 23 17 13 14 19 19 17 16 15 14 12 17 16 14 14 16 18 18
22 21 18 17 15 14 15 14 11 8 9 8 9 10 11 12 16 17 18 18 17 15
18 18 17 17 16 14 14 14 13 12 11 13 16 10 10 13 21 24 23 18 16 13
20 21 21 19 19 19 20 21 21 22 20 19 17 15 16 19 22 23 21 16 12 10

GFSNIL_925_spd_087.txt.gz
Wind_Speed
30 35 30 28 31 31 32 34 31 28 25 23 22 22 20 20 22 22 22 22 22 23
32 34 35 31 32 31 35 36 33 26 27 24 24 23 23 24 23 22 23 25 26 26
33 31 34 34 37 35 37 39 34 33 25 27 26 25 26 24 25 25 26 25 25 26
33 34 33 34 36 37 38 39 38 34 32 29 27 26 27 27 27 27 27 27 27 28
33 34 35 34 33 37 37 39 36 34 30 31 29 28 28 29 29 28 29 28 28 27
34 35 36 36 35 34 34 35 34 34 32 30 31 30 30 30 30 30 30 29 28 28
33 35 35 34 34 33 34 33 34 35 33 32 32 32 31 31 29 30 30 27 28 29
32 32 32 31 32 32 33 33 33 33 33 31 30 28 28 29 29 28 27 29 31 30
31 31 30 30 31 30 31 32 31 30 29 28 27 27 31 30 26 24 25 26 26 23
30 30 29 30 30 30 29 29 29 28 27 25 23 24 26 27 26 25 22 20 16 11
31 30 29 29 29 27 27 28 25 23 21 20 19 22 24 23 16 14 10 10 10 9
29 29 29 29 27 26 21 23 20 17 15 14 12 7 10 13 15 15 14 13 13 14
25 24 23 21 20 20 21 20 17 16 13 14 17 13 10 11 19 23 23 20 20 17
16 15 17 19 19 22 25 26 25 25 21 20 17 14 14 17 22 26 24 21 19 16

GFSNIL_925_spd_090.txt.gz
Wind_Speed
34 34 32 35 30 33 31 30 31 31 26 28 27 24 23 25 24 24 23 24 23 25
34 34 33 34 31 32 30 30 36 37 37 30 26 25 24 25 26 27 27 27 29 29
33 35 34 33 35 32 33 33 33 37 35 31 29 28 28 29 29 28 29 29 29 29
32 35 38 33 33 37 37 37 36 38 33 34 38 31 31 32 31 31 30 31 30 29
32 33 36 38 37 38 37 37 37 36 40 34 33 35 36 33 30 31 31 29 30 29
34 35 35 35 37 38 41 40 39 41 42 37 35 34 34 33 32 31 31 31 30 32
35 34 34 34 34 36 39 39 39 43 40 41 36 35 35 33 33 32 32 33 34 34
35 35 33 33 33 32 33 37 38 36 38 37 38 35 32 31 32 33 32 32 32 31
32 34 35 35 35 36 35 34 33 34 34 36 34 31 34 35 32 28 27 24 24 23
30 33 33 33 33 36 36 36 36 33 34 34 33 33 34 31 31 29 25 21 18 13
29 30 31 31 32 32 32 34 34 34 32 31 26 27 26 25 22 18 13 11 10 9
29 27 27 27 29 28 28 28 28 25 24 21 15 8 12 13 12 14 13 13 13 15
27 28 27 28 29 18 25 24 22 20 15 13 14 8 7 11 20 22 23 22 23 22
18 18 21 21 23 24 26 26 24 24 18 17 14 14 12 14 21 28 30 27 25 23

GFSNIL_925_spd_093.txt.gz
Wind_Speed
29 28 27 29 26 28 31 34 36 36 38 37 37 37 35 33 36 32 28 23 31 31
30 28 27 31 27 25 27 30 34 33 35 36 37 36 32 33 35 35 34 36 36 33
33 30 30 31 30 27 30 30 36 38 34 37 35 29 30 33 38 35 32 34 33 34
34 33 32 31 34 31 34 35 35 39 39 37 35 34 30 35 33 32 33 34 32 34
32 35 36 35 34 35 35 36 35 36 35 36 38 36 36 36 33 35 35 36 35 36
31 33 35 36 35 37 37 37 39 37 36 35 34 36 40 38 36 38 36 37 37 36
33 34 33 35 36 35 38 39 39 40 40 39 37 37 34 36 40 41 39 38 39 38
34 33 33 35 36 37 37 38 38 39 39 40 40 40 36 36 38 38 39 41 38 37
33 33 33 32 34 36 38 38 39 37 40 38 39 42 46 43 37 38 39 39 35 30
35 36 36 34 33 32 34 33 37 38 36 37 41 41 42 42 41 40 36 32 26 21
37 36 35 35 35 34 34 34 31 32 34 33 34 38 37 37 37 27 21 17 16 12
31 32 33 34 34 32 31 29 30 28 30 30 24 21 30 34 24 18 15 13 13 15
34 31 29 29 29 29 32 27 24 22 20 22 22 18 20 22 27 25 25 24 25 24
33 33 32 31 27 25 26 27 26 25 21 20 20 18 19 22 26 33 34 30 29 26

GFSNIL_925_spd_096.txt.gz
Wind_Speed
30 28 24 24 22 21 24 30 31 33 36 38 40 37 29 26 19 23 24 25 26 28
30 27 27 28 23 25 23 23 31 36 36 33 38 43 35 31 31 29 30 31 28 27
29 28 28 26 26 27 29 27 32 35 37 35 38 39 37 35 36 33 34 32 34 27
30 29 26 30 30 30 32 31 33 36 37 39 35 39 40 39 39 36 33 35 36 39
30 30 30 28 33 31 33 35 37 38 39 37 39 39 40 39 37 37 36 37 36 39
31 31 32 33 31 33 34 37 36 38 41 42 40 40 40 40 38 38 39 38 39 38
31 32 31 31 33 35 36 37 41 37 37 37 40 42 42 41 39 39 39 39 40 38
30 30 31 32 33 33 35 37 37 39 38 38 39 38 37 37 37 37 38 41 39 38
33 31 32 33 34 34 35 35 34 36 39 39 42 40 40 38 36 38 38 37 38 37
34 35 34 31 33 34 35 34 35 34 35 37 39 41 44 44 42 38 41 40 38 33
31 32 32 34 34 33 33 36 35 36 37 35 40 43 43 42 43 44 40 36 36 33
27 30 32 32 33 33 33 32 35 35 36 36 37 39 40 40 37 31 24 21 20 22
26 30 31 33 32 32 33 30 31 31 30 34 38 35 38 38 35 28 23 19 18 21
10 18 25 27 28 33 33 29 25 22 18 19 18 18 23 25 34 34 29 25 27 28

GFSNIL_925_spd_099.txt.gz
Wind_Speed
25 24 21 23 21 19 18 21 26 28 35 38 38 37 34 36 30 30 30 28 24 28
27 25 24 24 24 16 19 25 27 30 31 34 35 36 41 34 27 30 29 25 24 24
29 27 25 25 24 25 22 23 26 33 36 38 34 37 40 38 32 25 26 23 21 25
30 29 28 28 27 30 27 24 26 29 30 31 34 39 41 37 33 35 33 26 26 26
29 29 29 28 29 29 30 29 29 31 32 34 36 38 36 35 37 34 34 34 29 28
28 29 30 30 30 29 30 32 30 32 34 33 35 38 37 37 40 37 38 36 36 33
29 29 30 31 31 31 31 32 35 33 34 36 36 36 36 36 36 36 36 38 40 39
27 28 27 29 31 32 32 31 35 36 36 39 40 38 37 35 35 35 36 37 36 39
23 25 26 27 28 29 31 32 33 36 36 37 39 39 44 42 38 37 38 38 40 40
25 24 24 25 26 28 29 29 33 34 37 37 40 39 39 41 41 37 40 38 37 40
24 25 24 25 27 27 26 29 29 31 36 36 39 42 44 42 41 43 41 39 39 40
24 25 25 27 26 26 27 27 30 30 32 35 36 39 40 41 43 42 39 35 30 30
8 23 28 29 29 28 28 29 29 29 31 33 34 33 36 38 42 38 30 23 20 19
8 6 8 25 29 29 28 27 25 24 22 23 27 32 37 36 38 36 26 20 21 23

GFSNIL_925_spd_102.txt.gz
Wind_Speed
26 23 22 21 17 17 17 18 20 29 34 38 33 37 41 39 35 32 33 39 31 24
27 23 22 20 18 17 14 14 20 28 33 39 41 40 38 35 33 36 28 29 28 24
28 25 22 21 21 19 18 17 19 25 29 32 35 40 40 36 35 36 33 27 30 33
28 26 23 23 23 23 20 21 23 25 30 32 32 39 40 34 36 38 35 32 34 26
29 27 25 25 25 25 24 24 25 26 28 31 33 35 39 41 39 38 32 34 36 33
26 27 27 26 25 25 26 26 24 27 29 26 28 32 32 31 31 34 32 31 31 35
23 24 25 26 26 26 27 28 26 26 30 33 33 34 36 35 33 34 34 33 29 33
24 25 25 26 26 26 26 26 28 27 28 30 32 35 35 36 34 34 35 37 39 39
18 21 24 25 26 27 27 27 28 30 31 32 34 35 37 37 35 36 35 35 40 44
18 22 26 27 27 26 27 28 28 29 31 31 35 35 36 37 38 38 40 39 38 40
22 22 22 25 27 27 27 29 30 30 31 32 33 35 36 38 39 41 42 43 44 43
6 17 22 24 25 27 27 27 28 30 31 33 34 36 37 39 41 42 44 43 42 41
7 5 7 20 24 24 28 28 28 28 27 28 31 33 36 38 40 34 39 36 32 29
14 10 10 8 15 24 25 21 18 16 9 11 12 20 28 34 39 35 30 22 15 13

GFSNIL_925_spd_105.txt.gz
Wind_Speed
21 18 16 16 14 16 17 18 19 29 33 38 40 39 38 35 33 37 32 34 31 31
21 19 18 16 16 16 15 16 20 26 31 34 38 34 36 34 37 39 38 35 34 31
20 19 17 16 17 15 13 14 16 23 31 36 36 40 42 39 35 39 38 37 35 24
19 19 17 16 16 16 14 12 14 21 28 31 32 37 38 40 38 34 35 34 34 30
17 18 18 17 17 16 17 15 15 20 25 28 29 36 38 37 37 36 31 32 33 31
18 18 18 16 17 17 17 18 16 21 25 27 30 31 32 33 36 36 31 40 32 31
18 18 18 17 18 18 18 19 21 24 25 26 28 29 32 32 35 39 37 36 35 34
17 16 17 18 19 19 19 21 21 21 25 28 29 30 29 30 28 29 31 32 35 34
17 16 16 18 19 18 19 19 20 22 24 23 23 29 35 33 28 28 28 30 33 34
16 17 17 16 17 18 19 20 20 20 22 25 25 28 32 35 29 32 31 30 30 31
16 18 18 18 18 17 18 22 22 23 26 26 28 27 28 32 32 27 28 30 30 31
7 5 14 20 21 20 20 20 23 23 26 27 28 29 30 31 36 32 32 31 30 28
10 7 6 3 10 24 23 23 22 16 16 19 19 22 30 32 36 35 29 28 30 31
17 13 12 7 4 6 15 17 16 16 12 8 5 10 17 31 29 25 22 17 11 9

GFSNIL_925_spd_108.txt.gz
Wind_Speed
24 21 17 17 16 17 18 18 22 31 27 31 36 34 35 34 33 37 36 34 31 25
23 19 16 15 14 15 15 15 18 23 28 32 35 38 37 36 34 31 34 32 32 27
22 19 16 15 15 15 13 14 16 20 28 31 35 37 37 31 33 33 30 31 32 30
22 20 17 16 16 16 13 15 15 15 23 30 33 34 36 36 32 33 32 31 33 32
20 20 19 18 17 16 15 14 13 14 18 24 29 33 35 33 32 34 33 32 32 29
21 21 20 19 18 16 15 14 12 13 14 20 24 29 32 32 32 34 33 30 33 29
19 20 20 19 18 17 16 14 14 14 15 16 18 22 27 28 28 29 29 32 32 33
17 17 19 18 17 16 16 16 15 13 13 14 16 20 22 25 27 29 29 27 30 35
17 16 16 16 16 16 15 16 17 16 15 15 15 20 24 26 26 26 28 28 27 31
17 17 15 14 15 16 16 17 17 17 16 18 22 24 25 29 26 27 29 28 27 29
15 15 15 15 14 14 15 16 17 17 17 17 19 22 25 31 28 28 30 31 31 32
12 9 11 14 14 15 14 15 16 16 17 18 20 23 24 27 33 26 26 29 31 33
12 12 9 6 6 11 14 16 14 13 13 16 16 19 22 26 29 26 24 21 20 24
16 18 14 10 5 2 10 15 18 16 12 9 5 10 18 24 29 28 21 12 7 10

GFSNIL_925_spd_114.txt.gz
Wind_Speed
17 22 26 29 25 29 28 26 26 29 29 29 28 28 30 32 32 33 34 29 30 22
25 24 24 26 23 26 23 22 27 29 27 30 31 27 27 30 31 31 32 30 32 30
27 26 29 24 25 24 25 23 27 28 29 30 28 28 26 26 29 30 30 27 30 30
23 23 25 24 24 24 23 21 24 26 27 27 26 28 25 26 28 31 30 29 28 31
22 22 23 25 24 22 22 20 23 25 26 28 30 29 28 28 28 30 29 30 29 26
21 24 23 17 25 20 20 22 22 24 25 25 26 26 27 29 31 30 31 31 30 32
22 24 23 19 24 23 21 22 20 20 22 24 24 23 27 28 27 27 28 29 33 33
22 23 22 29 25 25 21 23 20 20 20 18 18 21 23 26 27 26 25 26 27 30
20 21 22 27 24 27 23 23 20 19 20 18 16 18 19 21 20 21 22 22 22 26
21 19 18 25 25 22 23 22 21 19 19 18 14 16 18 17 17 19 21 21 23 24
19 19 19 23 22 23 24 21 21 21 18 16 12 13 18 17 13 13 16 19 21 22
13 16 19 21 22 22 22 21 16 15 15 14 13 15 14 15 14 12 12 13 15 17
18 11 17 19 22 20 21 23 22 20 18 17 13 12 15 17 15 14 15 13 13 18
23 20 14 18 22 28 28 27 26 26 21 18 10 6 7 12 14 15 15 12 8 4

GFSNIL_925_spd_120.txt.gz
Wind_Speed
20 18 18 16 26 32 33 33 33 34 35 36 36 35 34 35 34 32 31 31 29 28
27 24 24 19 22 31 34 31 32 35 38 38 38 36 35 35 32 31 31 31 30 30
29 27 27 25 24 29 37 32 30 32 37 34 38 37 36 33 31 29 30 29 29 29
32 30 27 29 30 30 36 34 32 32 34 36 37 36 36 32 31 29 29 28 28 28
32 31 28 29 30 31 35 32 31 33 35 37 36 36 34 32 29 29 28 28 27 28
30 29 30 28 24 29 33 30 32 33 35 35 33 33 32 31 31 30 29 28 29 27
27 28 31 29 25 25 24 28 33 35 35 33 33 30 31 30 29 28 29 29 29 30
29 29 30 28 24 25 25 28 35 34 31 33 31 30 28 29 29 29 28 28 29 31
26 28 29 29 25 24 24 28 32 35 33 32 29 24 27 28 27 28 26 26 29 30
27 28 30 30 24 22 24 28 29 28 34 31 26 22 23 25 25 25 25 25 25 26
30 30 30 29 27 23 25 27 30 31 32 28 21 20 21 22 22 21 21 21 21 20
32 31 29 28 29 24 24 24 25 29 31 27 21 20 21 22 18 17 16 15 15 14
30 30 26 26 26 21 23 28 30 28 27 26 25 23 23 22 21 19 17 15 15 16
32 30 26 20 20 5 28 31 30 31 25 20 22 27 27 24 24 24 20 15 12 13

GFSNIL_925_spd_123.txt.gz
Wind_Speed
11 7 5 7 10 14 21 28 33 36 37 37 35 34 35 37 35 36 35 33 31 29
12 12 12 12 14 19 21 27 32 35 39 39 33 32 35 37 34 33 34 33 31 30
12 14 16 15 17 19 23 26 30 32 35 35 30 33 35 35 35 34 32 30 28 27
19 18 19 19 19 20 24 26 30 33 35 35 30 34 36 33 33 34 32 30 28 28
29 28 26 25 24 22 23 29 30 31 34 35 31 34 36 34 34 34 31 30 28 29
27 27 27 27 28 24 23 26 26 30 34 33 33 34 37 36 34 35 34 31 30 28
29 30 29 30 29 26 24 24 26 29 33 34 33 35 36 35 34 33 31 30 31 28
28 29 29 28 27 27 25 23 24 28 29 30 32 34 35 34 32 29 30 30 30 28
25 27 27 27 27 27 24 24 24 25 28 30 32 35 37 34 32 29 28 28 27 26
26 27 28 28 26 25 25 23 25 26 28 30 33 37 35 33 31 30 28 26 26 26
28 28 29 27 25 27 26 25 24 24 29 32 31 34 29 33 29 27 26 26 25 23
29 30 28 27 28 27 28 27 25 25 30 27 31 31 32 29 27 24 22 21 20 20
30 29 27 28 28 27 23 19 21 19 23 31 34 33 32 30 27 23 21 18 17 17
31 31 29 28 25 22 15 8 15 22 17 24 26 28 30 30 29 27 23 18 15 16

GFSNIL_925_spd_126.txt.gz
Wind_Speed
13 10 8 6 6 14 24 27 26 27 31 33 35 38 35 35 34 34 35 35 34 32
15 11 8 4 4 10 18 21 21 25 28 30 35 37 37 36 34 30 33 36 35 33
16 13 12 11 12 14 18 19 26 25 28 32 30 33 37 33 35 32 31 33 34 33
20 19 17 16 17 18 21 22 24 28 31 30 31 33 31 30 29 31 30 34 33 33
22 21 19 19 19 20 23 24 25 25 30 32 32 33 33 30 28 31 32 34 32 32
21 22 21 22 23 22 23 25 24 26 30 32 34 32 33 33 32 32 35 34 34 33
26 26 24 23 23 25 24 26 25 27 28 31 33 33 31 33 33 33 33 35 35 35
26 25 25 24 24 26 26 26 28 28 27 29 31 32 33 32 33 32 31 34 34 34
25 28 28 28 28 28 27 26 27 28 27 24 28 31 33 31 31 32 32 31 33 31
29 30 30 30 29 28 29 28 29 28 25 24 28 28 31 31 34 33 30 30 30 29
29 31 32 30 29 29 28 28 28 27 24 24 27 29 30 34 35 32 32 28 30 30
29 29 30 30 31 28 28 28 27 27 22 24 26 31 32 38 30 26 27 28 28 27
28 29 29 31 30 27 26 25 21 17 15 26 28 30 37 39 27 28 27 25 26 26
31 31 31 32 30 27 27 23 21 17 13 8 10 26 36 40 34 32 28 26 22 22

GFSNIL_925_spd_129.txt.gz
Wind_Speed
15 12 8 7 8 9 11 11 21 33 27 33 37 42 38 34 32 32 32 28 27 31
12 10 5 1 3 6 8 11 13 14 20 26 34 38 37 34 32 30 33 31 29 28
13 9 5 5 4 4 8 12 14 16 18 19 26 30 33 34 33 30 29 28 28 30
9 10 12 7 9 10 12 13 15 17 18 21 24 27 30 32 32 32 29 27 28 30
16 16 15 16 15 14 16 17 16 17 18 20 22 25 29 30 32 31 29 29 28 32
14 14 14 15 15 14 15 17 19 19 19 21 22 25 27 29 31 32 33 30 32 33
23 21 17 15 16 16 17 20 19 19 22 22 25 27 28 30 31 33 34 33 34 33
25 23 21 22 22 22 21 21 22 22 22 23 25 28 31 32 33 33 31 32 36 34
26 22 21 19 19 20 21 22 22 22 23 25 25 27 32 34 32 33 32 29 33 35
23 24 25 25 25 25 25 25 24 24 24 25 28 26 31 36 36 32 31 30 32 32
28 28 28 28 27 25 24 25 25 25 24 25 29 25 30 30 38 29 28 31 34 33
27 25 26 26 27 26 26 26 26 24 25 23 26 25 27 30 35 30 30 34 36 36
25 25 28 29 29 27 26 24 26 25 21 21 20 21 16 28 32 24 26 31 35 36
25 25 28 28 28 29 29 28 28 26 24 26 25 24 19 24 30 26 31 34 35 32

GFSNIL_925_spd_132.txt.gz
Wind_Speed
18 24 20 15 16 17 20 19 22 26 26 26 32 35 33 33 35 36 38 39 35 30
19 21 14 11 11 7 8 9 9 15 22 22 22 33 34 34 33 36 39 38 36 32
19 18 15 10 7 4 2 3 7 10 13 17 18 24 27 29 31 33 34 35 33 33
21 17 13 12 8 5 4 3 6 9 11 13 17 21 24 27 30 31 33 33 32 34
18 16 16 13 11 10 9 8 6 10 12 14 18 20 23 27 26 29 31 34 33 32
18 16 15 16 16 13 13 14 11 12 12 16 19 21 24 26 28 31 33 33 32 33
23 27 26 23 22 19 17 18 15 15 15 17 21 22 23 26 29 31 32 34 33 33
22 21 20 18 19 18 17 18 18 19 19 19 21 23 23 25 29 31 32 32 35 36
24 21 21 21 21 21 20 20 19 18 19 21 21 22 24 28 32 32 32 31 32 36
26 26 29 27 24 23 22 20 19 18 18 20 21 22 27 30 35 34 33 32 30 32
24 24 24 24 24 23 22 22 22 22 21 19 18 23 28 31 33 35 32 33 32 31
24 23 24 23 23 25 26 25 26 24 23 21 22 25 31 29 26 28 29 29 32 31
25 24 25 26 26 26 26 25 25 25 23 23 27 30 32 33 23 20 22 25 28 33
22 22 23 24 24 27 27 24 25 25 23 24 28 30 32 31 26 18 20 26 32 34

GFSNIL_925_spd_135.txt.gz
Wind_Speed
14 32 29 31 28 28 29 29 28 28 33 34 33 37 29 31 37 37 33 33 30 26
34 17 16 21 17 21 23 25 26 30 32 33 31 32 25 26 34 29 31 35 34 33
26 22 18 21 27 21 18 12 13 15 20 23 26 30 27 25 23 23 27 27 24 21
25 17 20 24 22 19 15 5 3 3 4 8 11 15 15 18 20 23 25 25 27 30
28 18 23 27 23 18 11 4 1 1 2 5 10 13 17 21 24 27 28 31 34 35
25 14 31 31 25 12 7 7 7 6 5 5 10 14 15 19 23 27 29 31 32 33
29 30 30 23 15 8 11 13 11 11 9 8 12 15 16 18 23 27 29 31 32 34
21 21 20 21 16 19 21 18 19 16 12 12 13 13 17 17 22 25 28 30 32 34
25 25 23 18 19 21 18 18 16 21 20 18 16 19 24 26 23 24 28 29 31 32
31 34 29 30 32 31 26 23 22 20 20 18 17 21 25 26 26 28 33 33 34 37
31 29 32 34 31 29 26 28 26 23 22 21 21 26 30 31 28 27 28 30 34 38
26 28 30 30 29 25 23 24 23 22 22 21 21 26 29 35 29 26 27 28 31 34
30 29 28 27 25 24 25 24 24 24 21 19 21 25 30 33 27 25 27 30 24 28
25 22 22 22 23 26 25 22 24 24 21 24 26 29 32 35 29 26 30 26 28 26